Regional Weather Roundup
Issued by NWS

Home | Current Version | Previous Version | Text Only | Print | Product List | Glossary On
Versions: 1 2 3 4 5 6 7 8 9 10 11 12 13 14 15 16 17 18 19 20 21 22 23 24 25 26 27 28 29 30 31 32 33 34 35 36 37 38 39 40 41 42 43 44 45 46 47 48 49 50
000
ASUS44 KJAN 031303
RWRMS

MISSISSIPPI HOURLY WEATHER ROUNDUP
NATIONAL WEATHER SERVICE JACKSON MS
800 AM CDT TUE MAY 03 2016

NOTE: "FAIR: INDICATES FEW OR NO CLOUDS BELOW 12,000 FEET WITH NO
SIGNIFICANT WEATHER AND/OR OBSTRUCTIONS TO VISIBILITY.

MSZ001>002-007>008-010>013-018>021-025>028-034>036-031400-
NORTHWEST MISSISSIPPI

CITY           SKY/WX    TMP DP  RH WIND       PRES   REMARKS
BATESVILLE     PTSUNNY   58  55  89 N3        30.02R
CLEVELAND      FAIR      58  58  97 N12       30.02R
GREENWOOD      FAIR      61  55  81 N7        30.00R
GREENVILLE     PTSUNNY   59  53  80 N8        30.02R
OLIVE BRANCH   PTSUNNY   55  55 100 N12       30.01R
OXFORD         FAIR      55  54  94 N6        30.02R
TUNICA         CLOUDY    55  52  88 N7        30.03R
WINONA         FAIR      59  56  91 N6        29.99R
$$

MSZ003>006-009-014>017-022>024-029>033-037>039-031400-
NORTHEAST MISSISSIPPI

CITY           SKY/WX    TMP DP  RH WIND       PRES   REMARKS
COLUMBUS AFB   CLOUDY    61  59  94 N5        29.98R
CORINTH        CLOUDY    57  54  88 VRB6      29.99S
GOLDN TRIANGLE CLOUDY    61  57  88 NW5       29.98R
STARKVILLE     CLOUDY    59  57  94 CALM      29.98R
TUPELO         CLOUDY    59  55  87 N12       29.99R
$$

MSZ040-058-031400-
CENTRAL MISSISSIPPI

CITY           SKY/WX    TMP DP  RH WIND       PRES   REMARKS
JACKSON INTL   CLOUDY    64  60  87 NW6       29.99R
JACKSON HAWKNS CLOUDY    62  59  90 N7        30.00R
MADISON        CLOUDY    61  59  94 N3        29.99R
MERIDIAN KEY   CLOUDY    63  60  90 N7        29.97S
MERIDIAN NAS   CLOUDY    63  59  87 N6        29.98R
VICKSBURG TVR  PTSUNNY   66  58  75 N16       30.01R
VICKSBURG VKS  CLOUDY    63  59  88 N8        30.01R
$$

MSZ059>079-031400-
SOUTH MISSISSIPPI

CITY           SKY/WX    TMP DP  RH WIND       PRES   REMARKS
BROOKHAVEN     CLOUDY   N/A N/A N/A N3        29.99S
COLUMBIA       CLOUDY    64  63  94 CALM      30.02R
HATTIESBURG    CLOUDY    67  61  81 N5        29.98R
MCCOMB         CLOUDY    64  61  90 NE5       29.98R
NATCHEZ        CLOUDY    63  59  88 N6        30.00R
PINE BELT      CLOUDY    64  59  82 N9        29.98S
$$

MSZ080>082-031400-
COASTAL MISSISSIPPI

CITY           SKY/WX    TMP DP  RH WIND       PRES   REMARKS
BAY ST LOUIS   PTSUNNY   66  64  94 N7        29.95
BILOXI         CLOUDY    69  69 100 N8        29.94R
PASCAGOULA     CLOUDY    70  68  93 N9        29.94S
GULFPORT       CLOUDY    69  67  93 N9        29.94R
$$



USA.gov is the U.S. government's official web portal to all federal, state and local government web resources and services.